Content
SEND FEEDBACK

Daily
Averages
Monthly
Summary
United States of America

WEDDERBURN, OREGON


Home > North America > United States > Oregon
Elevation: 133 feet     Latitude: 42 24N     Longitude: 124 25W

WEATHER
 
SELECT A DAY
Number of Records: 139,338;   Date Range: 8/2/05 - 10/30/14
 
SHARE

PRINT THIS DATA

[ ← Previous Day ]
WEATHER ALMANAC - JANUARY 18, 2013
[ Next Day → ]
[ °C ]   °F
Weather ElementAverageHighLow
Temperature37 °F50 °F (2:56 pm)32 °F (8:00 am)
Dewpoint36.6 °F46.9 °F (1:56 pm)32 °F (8:00 am)
Humidity98.7 %100 % (12:56 am)74 % (3:56 pm)
Barometer30.21 in30.25 in (8:56 am)30.19 in (4:30 am)
Wind Speed1.1 mph5.8 mph (12:56 pm)
Weather ElementAverage
Visibility4.4 mi
Wind DirectionENE (78.3 °)

Weather ElementTotal
Precipitation---
Heating Degree Days24 (Base 65)
Averaged from 47 records on January 18, 2013
WEATHER CONDITIONS BREAKOUT
WIND DIRECTION BREAKOUT
WEATHER BY HOUR - JANUARY 18, 2013
[ °C ]   °F
Local TimeTemperatureDewpointHumidityBarometerVisibilityWind DirectionWind SpeedGust SpeedPrecipitationEventsConditions
12:56 AM34.0 °F34.0 °F100 %30.21 in0.5 miNNW (330°)3.5 mph0.00 inFogFog
1:04 AM33.8 °F33.8 °F100 %30.20 in1.0 miCalmMostly Cloudy
1:14 AM33.8 °F33.8 °F100 %30.20 in0.5 miCalmFogFog
1:22 AM33.8 °F33.8 °F100 %30.20 in0.2 miCalmFogFog
1:56 AM34.0 °F34.0 °F100 %30.22 in0.2 miCalm0.00 inFogFog
2:56 AM34.9 °F34.9 °F100 %30.22 in0.2 miNNE (30°)3.5 mph0.00 inFogFog
3:56 AM34.9 °F34.9 °F100 %30.21 in0.2 miNorth (360°)3.5 mph0.00 inFogFog
4:09 AM33.8 °F33.8 °F100 %30.20 in0.5 miCalmFogFog
4:14 AM33.8 °F33.8 °F100 %30.20 in1.2 miCalmMostly Cloudy
4:16 AM33.8 °F33.8 °F100 %30.20 in3.0 miCalmMostly Cloudy
4:30 AM33.8 °F33.8 °F100 %30.19 in10.0 miCalmScattered Clouds
4:56 AM32.9 °F32.9 °F100 %30.21 in10.0 miCalmClear
5:56 AM34.0 °F34.0 °F100 %30.20 in10.0 miCalm0.00 inClear
6:56 AM34.0 °F34.0 °F100 %30.20 in4.0 miCalmClear
7:00 AM33.8 °F33.8 °F100 %30.19 in1.5 miNorth (350°)3.5 mphClear
7:02 AM33.8 °F33.8 °F100 %30.19 in1.0 miNNW (330°)3.5 mphClear
7:05 AM33.8 °F33.8 °F100 %30.19 in0.5 miCalmFogFog
7:20 AM33.8 °F33.8 °F100 %30.19 in0.8 miCalmClear
7:25 AM33.8 °F33.8 °F100 %30.20 in1.0 miCalmMist
7:32 AM33.8 °F33.8 °F100 %30.20 in0.5 miNNW (340°)3.5 mphFogFog
7:41 AM33.8 °F33.8 °F100 %30.20 in0.2 miCalm0.00 inFogFog
8:00 AM32.0 °F32.0 °F100 %30.21 in0.5 miNNW (340°)3.5 mph0.00 inFogFog
8:10 AM33.8 °F33.8 °F100 %30.21 in1.5 miCalm0.00 inMostly Cloudy
8:15 AM33.8 °F33.8 °F100 %30.21 in1.0 miCalm0.00 inMostly Cloudy
8:17 AM33.8 °F33.8 °F100 %30.21 in0.5 miCalm0.00 inFogFog
8:26 AM33.8 °F33.8 °F100 %30.22 in0.2 miNorth (350°)3.5 mph0.00 inFogFog
8:56 AM34.9 °F34.9 °F100 %30.25 in0.2 miNorth (360°)3.5 mph0.00 inFogFog
9:56 AM36.9 °F36.9 °F100 %30.25 in0.2 miWest (280°)3.5 mph0.00 inFogFog
10:28 AM39.2 °F39.2 °F100 %30.24 in0.5 miCalm0.00 inFogFog
10:30 AM39.2 °F39.2 °F100 %30.24 in1.0 miCalm0.00 inMostly Cloudy
10:32 AM39.2 °F39.2 °F100 %30.24 in1.5 miCalm0.00 inMostly Cloudy
10:39 AM39.2 °F39.2 °F100 %30.23 in3.0 miCalm0.00 inMostly Cloudy
10:47 AM41.0 °F41.0 °F100 %30.23 in10.0 miCalm0.00 inScattered Clouds
10:56 AM41.9 °F41.9 °F100 %30.25 in10.0 miCalm0.00 inPartly Cloudy
11:56 AM41.9 °F41.9 °F100 %30.24 in8.0 miVariable3.5 mphClear
12:56 PM43.9 °F43.9 °F100 %30.23 in10.0 miWNW (290°)5.8 mphClear
1:56 PM48.9 °F46.9 °F93 %30.21 in10.0 miWNW (290°)4.6 mphClear
2:56 PM50.0 °F43.0 °F77 %30.21 in10.0 miCalmClear
3:56 PM48.9 °F41.0 °F74 %30.21 in10.0 miCalmClear
4:56 PM45.9 °F45.0 °F97 %30.21 in10.0 miCalmClear
5:56 PM41.0 °F41.0 °F100 %30.22 in10.0 miCalmClear
6:56 PM38.8 °F38.8 °F100 %30.23 in10.0 miCalmClear
7:56 PM37.9 °F37.9 °F100 %30.23 in10.0 miCalmClear
8:56 PM37.9 °F37.9 °F100 %30.22 in10.0 miCalmClear
9:56 PM37.9 °F37.9 °F100 %30.22 in10.0 miNNE (30°)3.5 mphClear
10:56 PM37.9 °F37.9 °F100 %30.21 in10.0 miCalmClear
11:56 PM36.9 °F36.9 °F100 %30.21 in10.0 miCalmClear
Hourly data recorded from KBOK, located miles away from Wedderburn, Oregon







STORIES FROM OUR PARTNERS